(31) Euphrosyne
ephemeris date magn radius delta ra dec elong phase
Opposition4 May 202511.93.534 AU2.535 AU14h35m-24°53'170.8°2.6°
Today6 May 202511.93.537 AU2.538 AU14h34m-24°54'170.6°2.7°
(31) Euphrosyne - 2025-05-06
astro.vanbuitenen.nl


 
-1 year
-1 month
-1 day
Now
+1 day
+1 month
+1 year

The interactive orbit chart above shows the body's path through the solar system and its position at the given date. Green and blue lines are shown perpendicular to the ecliptic plane: Green if the path is above the ecliptic plane, blue if it is below. (Left-click and drag to rotate the view; Right-click and drag to move the view; Use scroll wheel to zoom in our out.)

The orbital elements of Euphrosyne are:

            e (Eccentricity)                : 0.2159829
            a (Semimajor axis)              : 3.1610744
            i (Inclination)                 : 26.31587
            Ω (Longitude of ascending node) : 30.80052
            ω (Argument of perihelion)      : 61.92663
            M (Mean anomaly)                : 112.87325
            Epoch                           : 2025 May 05

            L (Longitude of perihelion)     : 90.04708
            B (Latitude of perihelion)      : 23.02676
            P (Orbital period in years)     : 5.62            
        

The light curve chart below shows the estimated development of the minor planet's magnitude.


The all-sky chart below shows the path of the minor planet over the same period as the light curve. The current position is marked yellow.





The following chart shows the path of the minor planet in the next few days. The field of view is optimized for (~10x50) binoculars and finderscopes. A more printer-friendly version of the same chart can be found below.




Ephemerides:
Date       Time       RA (2000)    DEC (2000)    delta   radius  elong  phase   PA    magn
2025-05-06 00:00 UT   14 34 15.7   -24 54 18     2.538    3.537  170.6    2.7    26   11.9 
2025-05-06 10:03 UT   14 33 50.5   -24 54 31     2.538    3.537  170.5    2.7    29   11.9 
2025-05-07 00:00 UT   14 33 15.7   -24 54 48     2.540    3.538  170.3    2.8    33   11.9 
2025-05-08 00:00 UT   14 32 16.0   -24 55 13     2.542    3.540  169.9    2.9    40   11.9 
2025-05-09 00:00 UT   14 31 16.5   -24 55 33     2.545    3.541  169.3    3.0    46   11.9 
2025-05-10 00:00 UT   14 30 17.5   -24 55 49     2.547    3.543  168.7    3.2    51   11.9 
2025-05-11 00:00 UT   14 29 18.8   -24 56 01     2.551    3.544  167.9    3.4    56   11.9 
2025-05-12 00:00 UT   14 28 20.5   -24 56 08     2.554    3.546  167.2    3.6    60   12.0 
2025-05-13 00:00 UT   14 27 22.8   -24 56 12     2.558    3.548  166.3    3.9    64   12.0 
2025-05-14 00:00 UT   14 26 25.6   -24 56 12     2.562    3.549  165.4    4.1    67   12.0 
2025-05-15 00:00 UT   14 25 28.9   -24 56 08     2.566    3.551  164.5    4.4    70   12.0 
2025-05-16 00:00 UT   14 24 32.9   -24 56 01     2.571    3.552  163.6    4.6    72   12.0 
2025-05-17 00:00 UT   14 23 37.5   -24 55 50     2.576    3.554  162.6    4.9    74   12.1 
2025-05-18 00:00 UT   14 22 42.8   -24 55 36     2.581    3.555  161.6    5.1    77   12.1 
2025-05-19 00:00 UT   14 21 48.8   -24 55 20     2.587    3.557  160.6    5.4    78   12.1 
2025-05-20 00:00 UT   14 20 55.6   -24 55 01     2.592    3.558  159.6    5.7    80   12.1 
2025-05-21 00:00 UT   14 20 03.2   -24 54 39     2.598    3.560  158.6    6.0    82   12.1 
2025-05-22 00:00 UT   14 19 11.7   -24 54 15     2.605    3.561  157.5    6.2    83   12.1 
2025-05-23 00:00 UT   14 18 21.0   -24 53 50     2.611    3.563  156.5    6.5    84   12.2 
2025-05-24 00:00 UT   14 17 31.3   -24 53 22     2.618    3.564  155.4    6.8    86   12.2 
2025-05-25 00:00 UT   14 16 42.4   -24 52 52     2.625    3.566  154.4    7.1    87   12.2 
2025-05-26 00:00 UT   14 15 54.6   -24 52 22     2.633    3.567  153.3    7.3    88   12.2 
2025-05-27 00:00 UT   14 15 07.8   -24 51 50     2.641    3.569  152.3    7.6    89   12.2 
2025-05-28 00:00 UT   14 14 22.0   -24 51 17     2.649    3.570  151.2    7.9    90   12.3 
2025-05-29 00:00 UT   14 13 37.2   -24 50 44     2.657    3.572  150.2    8.1    90   12.3 
2025-05-30 00:00 UT   14 12 53.6   -24 50 09     2.665    3.573  149.1    8.4    91   12.3 
2025-05-31 00:00 UT   14 12 11.1   -24 49 35     2.674    3.575  148.0    8.6    92   12.3 
2025-06-01 00:00 UT   14 11 29.7   -24 49 01     2.683    3.576  147.0    8.9    93   12.3 
2025-06-02 00:00 UT   14 10 49.4   -24 48 27     2.692    3.578  145.9    9.1    93   12.4 
2025-06-03 00:00 UT   14 10 10.4   -24 47 53     2.701    3.579  144.9    9.4    94   12.4 
2025-06-04 00:00 UT   14 09 32.5   -24 47 19     2.711    3.580  143.8    9.6    95   12.4 
2025-06-05 00:00 UT   14 08 55.8   -24 46 47     2.721    3.582  142.8    9.9    95   12.4 


    Terminology:
            
    delta:  distance between minor planet and earth in AU
    radius: distance between minor planet and sun in AU
    magn:   magnitude (brightness) estimate    
    ra:     right ascension in hours (24h = 360deg)
    dec:    declination in degrees
    elong:  elongation in degrees (angle sun-earth-minor planet)    
    phase:  phase angle in degrees (angle sun-minor planet-earth)        
    AU:     Astronomical Unit (mean distance between earth and sun: 149597870.7 km
    

Orbital elements provided by the MPC (Minor Planet Center).
Calculations by a modified version of AAPlus, a C# implementation of the AA+ project by PJ Naughter from the algorithms presented in the book "Astronomical Algorithms" by Jean Meeus.
NGC2000 dso catalog and star labels from VizieR as provided by the Strasbourg astronomical Data Center.
Tycho2 catalog from the ESO archive.